Theta_e
327 326 327 330 332 330 338 340 345 359 361 357 354 354 351 354 354 355 361 360 360 359 360 357 360 360 359 357 353 350 351 343 344 337 336 338 343 345 343 346 349 349 349
322 326 327 331 332 332 334 341 344 350 356 355 359 351 351 348 351 352 364 358 360 360 360 361 358 361 349 355 350 350 340 335 336 329 328 325 328 331 336 338 342 347 348
320 325 327 328 329 327 336 336 343 352 357 357 354 355 357 354 350 350 354 358 360 359 360 361 356 351 348 337 351 345 346 330 330 341 325 321 318 325 331 336 335 339 334
321 325 328 329 327 325 332 333 346 355 355 358 358 357 351 345 344 349 349 356 360 360 359 352 346 350 339 346 341 338 340 339 327 326 327 335 329 321 321 329 333 337 336
320 325 326 326 321 325 327 336 349 353 356 359 357 350 352 346 351 345 356 356 355 348 340 341 341 346 339 343 347 346 345 332 329 324 323 330 324 329 325 321 324 330 333
322 323 321 322 322 323 330 340 346 348 351 351 354 356 352 348 338 340 335 334 334 337 338 334 343 347 345 344 340 345 345 341 336 329 329 322 320 320 323 321 323 323 327
317 318 319 318 324 324 329 334 339 341 344 343 342 341 341 341 340 337 331 333 328 328 344 346 347 339 347 345 345 345 344 343 336 340 328 328 326 325 324 322 320 320 324
318 319 321 324 326 328 330 332 332 330 332 333 333 333 333 331 332 335 334 332 331 332 345 338 338 339 339 343 346 339 339 340 339 339 337 329 328 328 325 323 320 318 319
317 318 319 321 322 323 324 325 324 323 325 326 327 327 327 327 327 328 329 325 335 329 332 333 335 337 338 340 343 338 340 341 340 338 338 336 331 330 329 327 324 320 316
316 316 316 317 318 319 320 321 321 320 320 321 323 322 323 323 323 324 325 326 327 326 326 327 328 331 333 337 341 337 339 339 336 336 336 334 333 332 331 329 327 325 321
314 314 315 316 316 317 318 318 318 317 318 318 318 319 319 319 321 321 322 322 325 323 322 322 323 324 327 330 332 334 337 336 335 335 334 333 334 331 330 329 328 325 324
314 314 314 315 315 315 315 315 315 315 315 316 316 316 317 318 320 318 321 320 320 320 319 319 319 319 320 324 325 325 325 327 330 331 332 330 331 331 331 329 329 327 328
313 314 314 313 313 313 313 313 314 313 314 314 314 315 315 316 317 317 318 318 318 317 318 317 317 317 318 319 320 320 320 322 323 325 327 328 329 328 328 329 327 327 327
312 313 313 313 313 312 312 312 312 312 312 312 312 312 314 315 315 316 316 316 316 316 316 316 315 315 316 316 316 317 319 320 320 322 323 323 324 325 326 326 326 326 325
310 311 310 311 312 311 311 311 310 310 311 310 310 311 312 313 314 314 314 313 312 311 311 311 310 312 312 311 313 311 311 313 314 315 314 315 317 314 314 315 322 324 322
309 309 309 310 309 309 309 309 309 310 310 309 309 310 311 312 311 310 309 309 309 309 308 306 306 306 306 303 303 305 307 308 308 308 310 312 311 311 309 310 310 314 318
307 308 308 308 308 308 309 307 308 308 308 308 309 309 310 307 306 306 305 304 305 306 305 305 304 303 304 300 299 301 304 305 305 306 307 307 309 310 313 310 309 310 309
307 307 307 307 307 307 307 308 307 306 307 307 307 307 306 305 304 303 303 303 303 302 302 303 303 303 303 299 297 298 302 302 303 306 306 309 310 311 313 314 315 317 320
305 305 306 305 306 306 307 305 304 305 304 304 304 304 304 302 302 301 302 303 302 303 303 304 303 303 303 299 297 298 301 301 302 304 305 308 308 306 301 306 310 316 318
304 304 304 304 305 305 304 302 301 300 300 302 300 300 303 303 302 302 302 303 304 304 303 303 304 303 303 300 297 298 301 299 300 304 305 304 305 301 299 311 311 310 315
302 302 302 301 302 300 299 297 297 297 298 298 300 302 303 304 304 303 302 305 304 301 302 303 304 305 305 304 298 297 300 300 300 304 306 308 301 298 297 297 308 307 311
299 299 298 297 297 297 296 295 294 294 296 299 300 301 303 302 301 303 305 305 306 304 301 303 304 304 308 301 300 297 296 300 301 302 307 307 300 298 295 302 299 298 305
295 295 294 293 294 294 293 289 291 296 297 297 299 301 301 301 303 305 303 301 305 305 303 300 301 305 307 307 300 297 297 297 300 306 306 300 298 297 305 302 298 299 309
291 292 291 290 290 290 290 291 293 294 296 296 298 298 298 300 304 304 303 300 300 301 301 302 302 303 302 303 304 304 304 300 303 304 304 303 302 302 306 306 304 305 311
290 290 288 288 287 289 289 292 293 294 294 295 295 296 299 301 302 302 301 301 303 301 300 301 302 301 300 302 298 296 298 299 300 304 309 313 314 313 314 314 315 315 316
288 288 288 287 287 287 288 289 290 290 291 291 292 293 296 300 301 301 300 299 296 296 295 293 294 300 296 294 293 291 291 291 291 308 313 312 313 313 314 313 315 316 312
Wind_Speed
19 19 13 12 15 5 4 6 7 10 7 9 9 10 10 10 9 10 10 5 8 9 10 9 11 7 10 7 5 6 7 8 8 9 10 10 11 12 11 11 12 14 14
23 21 12 14 10 4 2 6 7 8 8 7 6 7 8 9 9 10 7 5 9 11 9 10 10 8 6 7 6 6 7 8 8 9 10 11 10 10 9 9 10 12 12
23 20 24 17 15 1 5 7 11 4 4 9 4 5 7 6 7 7 8 8 7 9 10 13 7 4 5 7 8 7 8 8 7 7 8 8 11 11 10 12 12 12 10
20 22 25 27 12 3 5 11 8 5 5 5 3 3 5 6 6 7 7 10 12 13 10 8 8 6 6 7 6 6 7 6 8 7 8 9 11 12 13 10 10 11 13
13 22 23 19 12 8 3 7 6 5 5 5 7 9 10 8 3 5 7 3 6 8 9 9 8 7 7 8 6 6 6 7 8 8 9 8 10 10 11 12 10 10 10
7 13 10 13 10 10 8 4 8 11 11 10 12 8 8 5 3 5 6 7 7 8 8 9 7 7 7 8 8 8 9 9 8 9 9 10 10 10 10 11 11 12 11
6 5 13 11 11 10 12 10 11 7 7 9 7 4 4 3 3 1 4 4 5 6 7 9 7 8 8 10 10 9 10 10 10 9 11 10 10 10 10 11 11 11 10
10 14 12 13 12 14 13 12 9 9 6 7 7 6 4 2 1 7 6 5 6 7 8 8 8 9 11 11 10 10 11 12 11 14 13 11 10 10 10 10 11 11 11
12 14 13 14 13 13 12 12 11 7 7 8 6 6 5 5 4 5 4 4 4 7 8 10 10 11 11 12 13 12 13 13 13 14 14 13 11 12 12 11 10 12 12
15 14 14 14 13 13 11 10 9 9 8 6 5 6 5 5 5 4 6 7 7 9 10 12 12 12 13 13 14 14 15 16 14 13 16 15 13 14 13 12 11 11 12
13 13 12 12 12 11 11 8 7 7 7 7 6 6 6 7 7 8 9 9 10 11 13 13 14 15 15 14 14 15 17 18 18 17 18 20 18 14 14 13 12 12 12
13 13 11 10 9 9 9 9 7 8 8 8 7 8 9 9 7 8 9 11 13 13 14 16 17 17 17 15 15 17 17 19 19 20 20 22 15 20 18 15 17 15 13
12 10 9 8 8 8 8 7 7 8 8 9 10 9 10 10 11 11 12 13 14 14 15 16 17 17 17 18 17 18 19 18 18 19 19 19 20 20 16 17 16 15 14
8 8 7 8 8 8 9 9 9 10 10 11 11 11 11 12 12 13 13 14 15 15 16 16 17 17 18 18 18 19 18 18 18 18 18 19 19 19 18 18 18 16 16
4 7 7 7 8 8 8 9 9 10 11 12 12 12 13 13 13 14 14 14 14 13 15 15 15 15 14 14 15 15 16 16 16 15 16 16 19 24 21 14 16 17 15
6 6 7 8 9 10 10 11 11 12 12 12 13 13 13 13 13 13 14 14 13 14 14 15 16 17 13 18 16 18 16 16 17 17 18 18 22 24 27 25 25 21 19
5 7 8 8 9 10 10 11 11 12 12 12 12 12 12 12 13 13 15 15 15 14 14 14 16 16 16 17 14 14 17 17 15 17 16 17 16 18 20 21 23 25 26
8 9 8 9 9 10 11 11 11 12 12 12 11 11 11 12 12 13 13 12 11 12 12 13 14 16 14 18 15 18 17 16 18 17 18 20 20 20 20 20 21 21 21
9 9 10 11 11 11 11 11 12 12 11 11 11 12 12 12 13 12 12 12 12 13 14 13 16 17 18 17 16 13 14 15 15 16 16 19 18 23 16 13 16 20 20
9 10 12 11 11 10 12 12 12 12 11 10 11 13 13 13 13 13 14 14 15 15 12 15 17 20 18 18 18 14 10 13 12 15 17 21 21 22 18 15 16 18 21
12 12 11 11 11 11 10 11 10 10 10 11 13 13 13 13 13 15 13 15 12 12 11 15 14 19 15 15 17 16 11 11 11 12 12 8 7 12 16 16 12 15 12
13 13 11 11 11 10 9 10 10 10 11 11 12 13 13 11 12 13 11 13 15 10 11 15 14 10 12 12 16 17 12 13 10 11 12 9 8 15 14 9 14 14 5
11 11 11 11 10 11 9 9 10 11 11 12 13 12 13 12 12 10 9 10 14 13 10 9 11 13 10 8 8 8 14 15 11 12 7 6 15 13 15 9 9 11 8
10 11 12 11 11 10 9 10 11 11 11 12 12 11 12 13 11 8 9 8 10 11 10 10 10 11 10 8 7 7 6 10 10 5 5 10 12 12 15 7 9 7 10
11 11 10 8 8 10 10 9 10 11 11 11 11 11 11 11 10 8 9 9 10 9 10 10 9 9 10 10 8 10 9 8 7 6 7 6 5 6 7 7 8 10 9
11 9 7 8 9 10 10 11 12 12 12 11 9 9 10 10 9 8 10 11 11 17 14 10 9 8 12 19 18 12 9 12 13 5 2 4 2 6 9 7 6 5 2
Wind_Direction
199 195 177 231 284 323 333 291 273 278 213 203 211 215 219 216 222 233 219 161 197 207 210 234 213 203 235 261 301 280 261 261 266 279 275 279 278 279 279 286 277 271 267
243 197 158 231 266 80 324 247 261 239 226 222 241 249 223 222 221 221 146 164 202 204 199 225 253 192 235 204 236 252 273 278 279 278 286 285 289 289 290 297 294 286 274
239 213 191 214 260 131 29 322 292 235 231 255 240 236 283 256 188 219 189 191 207 204 214 219 240 230 229 255 195 222 242 267 285 279 275 292 295 314 311 303 304 304 294
237 225 191 189 195 193 160 275 238 238 202 224 274 259 268 218 218 228 208 178 198 209 209 221 214 226 246 235 229 219 250 256 267 278 276 272 283 287 292 291 288 283 288
235 213 198 177 178 160 233 265 201 206 217 189 248 205 231 218 183 242 107 176 192 215 217 214 229 229 225 254 250 271 226 252 258 275 284 283 280 274 281 293 296 292 290
170 149 137 145 156 171 160 214 211 217 198 193 219 225 257 291 179 200 168 196 207 194 230 239 223 239 246 250 260 233 242 249 270 281 292 282 281 286 286 290 295 301 293
123 155 157 164 126 161 174 172 199 177 178 164 137 143 98 83 120 257 225 297 258 232 195 201 224 250 235 245 264 255 248 250 247 246 255 262 270 277 280 282 287 292 297
104 99 93 109 114 127 153 126 132 148 145 107 95 65 30 96 261 66 5 314 321 313 342 325 305 289 272 266 264 251 250 253 242 241 247 260 265 272 271 276 285 285 284
109 100 100 98 105 104 96 100 106 83 111 97 94 78 67 57 42 17 336 289 323 303 301 317 301 287 279 272 275 267 258 255 249 249 244 240 251 259 262 265 269 276 282
113 109 110 116 115 109 100 99 106 102 88 74 47 49 17 24 360 332 312 309 305 297 292 293 290 285 281 276 268 264 259 253 253 254 253 247 248 244 247 252 257 262 271
120 112 107 102 93 94 93 89 76 78 60 48 21 18 357 347 341 329 319 315 308 301 292 289 287 280 273 269 268 270 272 269 264 254 253 255 252 253 252 253 253 253 258
118 110 107 99 93 77 70 64 34 32 22 7 1 353 341 337 334 322 312 306 300 299 295 288 281 277 276 276 274 273 273 273 271 263 262 258 256 255 254 259 265 263 268
107 103 98 85 74 59 49 36 18 25 3 345 340 338 330 321 316 310 308 305 296 291 288 283 281 283 285 285 281 279 277 277 276 274 271 263 261 263 262 262 261 259 249
100 78 64 64 35 33 17 10 5 2 349 338 334 327 326 321 315 311 304 301 301 300 295 296 296 292 289 286 285 284 283 283 283 283 281 279 278 274 266 263 265 265 265
76 62 41 23 11 11 359 358 352 345 337 331 326 321 316 318 315 310 313 310 306 305 304 300 297 294 294 289 296 313 305 296 290 283 285 286 292 305 300 296 287 266 260
58 22 7 2 355 354 346 346 334 335 329 324 313 318 313 313 314 314 313 309 303 300 295 295 296 292 292 298 308 305 296 293 288 286 284 284 286 282 283 279 271 270 272
18 354 349 346 352 342 340 325 327 325 319 314 311 307 323 325 318 309 303 298 291 294 294 289 284 285 282 280 287 291 289 286 282 279 276 275 270 281 280 273 266 254 250
344 339 343 343 341 330 321 326 324 316 312 313 319 330 315 311 307 305 298 299 297 295 292 291 289 285 283 271 263 264 275 275 271 272 274 270 273 269 270 275 276 273 263
334 343 344 338 328 320 327 327 317 316 319 322 321 330 318 307 314 303 302 301 294 289 293 289 289 283 286 286 274 262 281 281 276 275 277 270 272 270 269 269 274 272 265
346 344 340 322 321 337 342 324 321 320 318 321 320 297 295 308 306 305 299 297 295 287 292 285 286 279 276 277 277 267 272 270 269 271 270 255 257 268 273 271 278 270 266
349 342 334 327 346 334 325 310 312 310 325 305 292 305 306 308 306 296 283 287 288 288 289 290 286 279 275 274 274 262 264 267 270 274 275 277 333 314 313 282 278 252 262
343 345 335 337 333 328 335 322 317 312 292 301 304 301 306 315 289 287 312 312 310 284 292 300 292 279 288 254 268 267 249 263 259 269 275 274 324 305 277 300 319 334 337
348 345 340 327 331 348 338 312 300 303 319 307 303 312 318 300 297 301 321 313 312 310 306 293 303 305 300 301 277 264 272 267 257 264 250 292 279 286 294 286 277 296 294
352 345 339 340 337 332 320 312 321 315 308 310 314 321 314 298 306 332 325 313 306 306 304 300 299 303 299 294 288 276 281 286 286 247 251 247 249 249 263 291 264 241 249
352 353 350 334 330 326 324 328 328 325 319 318 320 317 308 321 321 330 318 313 306 290 295 294 290 299 300 297 303 294 296 290 290 285 253 235 227 272 273 276 256 220 220
357 350 339 340 338 338 338 350 343 335 327 320 322 321 310 322 310 333 319 311 284 295 298 290 275 298 271 288 294 307 286 260 243 228 189 199 234 251 269 261 236 158 279